Probability
0 0 0 0 0 0 0 0 0 0 0 0 0 0 0 0 0 0 6 13 32 42 55 52 71 68 68 61 58 61 61 61 61 55 55 58 58 55 55 45 42 39 35 32 19 16 13 10 13
0 0 0 0 0 0 0 0 0 0 0 0 0 0 0 0 0 6 13 13 35 42 52 61 68 68 65 61 61 58 58 58 55 55 48 52 52 52 45 42 39 39 35 29 26 23 19 10 10
0 0 0 0 0 0 0 0 0 0 0 0 0 0 0 0 6 13 16 19 42 42 48 55 65 61 55 55 55 55 55 55 48 48 45 45 39 39 35 39 35 39 39 35 32 23 19 3 6
0 0 0 0 0 0 0 0 0 0 0 0 0 0 0 6 10 19 26 35 42 45 48 55 58 61 48 48 48 48 48 48 45 45 42 42 42 35 35 29 29 29 29 29 19 23 16 13 16
0 0 0 0 0 0 0 0 0 0 0 0 0 0 6 10 10 19 32 42 42 48 48 35 48 48 45 48 48 48 48 45 39 39 35 32 35 32 26 23 23 19 19 16 6 6 6 10 10
0 0 0 0 0 0 0 0 0 0 0 0 0 0 10 13 23 26 35 42 42 42 39 35 45 48 45 45 39 39 45 35 35 32 32 29 26 26 16 16 19 16 13 6 6 6 6 6 3
0 0 0 0 0 0 0 0 0 0 0 0 0 0 10 16 23 35 39 39 42 39 35 35 35 35 35 39 39 35 35 35 29 23 23 23 23 19 16 16 16 13 6 6 3 3 3 3 3
0 0 0 0 0 0 0 0 0 0 0 0 0 0 10 16 26 32 29 29 32 29 32 32 32 32 35 29 29 29 26 19 19 16 16 13 13 16 13 13 13 10 6 6 6 6 3 0 3
0 0 0 0 0 0 0 0 0 0 0 0 0 0 13 16 26 32 32 29 32 29 29 29 29 29 29 26 23 19 16 16 16 13 3 6 10 10 10 6 6 6 6 6 6 6 6 3 0
0 0 0 0 0 0 0 0 0 0 0 0 0 0 13 23 29 32 32 29 29 29 29 29 29 29 29 29 26 23 16 10 6 10 13 13 16 10 3 0 3 6 6 6 6 6 6 0 0
0 0 0 0 0 0 0 0 0 0 0 0 0 3 13 19 23 26 32 29 29 29 29 29 29 29 29 19 19 13 10 10 10 6 6 6 6 10 3 3 3 6 3 6 6 3 0 0 0
0 0 0 0 0 0 0 0 0 0 0 0 0 10 13 19 23 26 26 26 29 26 29 29 29 29 23 19 13 13 10 10 10 10 10 10 10 6 10 6 6 6 6 6 6 3 3 0 0
0 0 0 0 0 0 0 0 0 0 0 0 0 10 13 19 19 23 23 26 26 23 19 19 19 13 16 13 13 10 10 6 6 10 6 6 6 6 3 0 3 3 3 3 3 3 3 0 0
0 0 0 0 0 0 0 0 0 0 0 0 0 10 13 16 19 23 23 23 23 23 16 13 13 16 10 10 10 10 3 3 3 3 0 3 3 3 3 0 0 0 3 3 3 3 3 3 3
0 0 0 0 0 0 0 0 0 0 0 0 0 6 6 6 13 16 19 23 23 19 10 13 13 13 6 3 3 0 0 0 0 0 0 0 0 0 3 0 0 0 0 0 3 3 3 3 3
0 0 0 0 0 0 0 0 0 0 0 0 0 3 6 6 10 13 13 16 19 16 13 10 3 6 3 0 0 0 0 0 0 0 0 0 0 0 0 0 0 0 0 0 0 0 3 3 3
0 0 0 0 0 0 0 0 0 0 0 0 0 3 3 6 10 10 13 13 10 13 10 3 0 0 0 0 0 0 0 0 0 0 0 0 0 0 0 0 0 0 0 0 0 0 0 0 0
0 0 0 0 0 0 0 0 0 0 0 0 0 0 3 3 6 10 10 10 6 3 3 6 0 0 0 0 0 0 0 0 0 0 0 0 0 0 0 0 0 0 0 0 0 0 0 0 0
0 0 0 0 0 0 0 0 0 0 0 0 0 0 0 3 3 6 10 6 6 3 3 3 0 0 0 0 0 0 0 0 0 0 0 0 0 0 0 0 0 0 0 0 0 0 0 0 0
0 0 0 0 0 0 0 0 0 0 0 0 0 0 0 0 3 3 3 0 3 3 3 3 3 0 0 0 0 0 0 0 0 0 0 0 0 0 0 0 0 0 0 0 0 0 0 0 0
0 0 0 0 0 0 0 0 0 0 0 0 0 0 0 0 3 3 0 0 3 3 3 3 3 3 0 0 0 0 0 0 0 0 0 0 0 0 0 0 0 0 0 0 0 0 0 0 0
0 0 0 0 0 0 0 0 0 0 0 0 0 0 0 0 0 3 0 0 0 3 3 3 3 3 3 0 0 0 0 0 0 0 0 0 0 0 0 0 0 0 0 0 0 0 0 0 0
0 0 0 0 0 0 0 0 0 0 0 0 0 0 0 0 0 0 0 0 0 0 3 3 3 3 3 3 0 0 0 0 0 0 0 0 0 0 0 0 0 0 0 0 0 0 0 0 0
0 0 0 0 0 0 0 0 0 0 0 0 0 0 0 0 0 0 0 0 0 0 0 3 3 3 3 3 3 0 0 0 0 0 0 0 0 0 0 0 0 0 0 0 0 0 0 0 0
0 0 0 0 0 0 0 0 0 0 0 0 0 0 0 0 0 0 0 0 0 0 0 0 3 3 3 3 3 0 0 0 0 0 0 0 0 0 0 0 0 0 0 0 0 0 0 0 0
0 0 0 0 0 0 0 0 0 0 0 0 0 0 0 0 0 0 0 0 0 0 0 0 0 0 0 3 0 0 0 0 0 0 0 0 0 0 0 0 0 0 0 0 0 0 0 0 0
0 0 0 0 0 0 0 0 0 0 0 0 0 0 0 0 0 0 0 0 0 0 0 0 0 0 0 0 0 0 0 0 0 0 0 0 0 0 0 0 0 0 0 0 0 0 0 0 0
0 0 0 0 0 0 0 0 0 0 0 0 0 0 0 0 0 0 0 0 0 0 0 0 0 0 0 0 0 0 0 0 0 0 0 0 0 0 0 0 0 0 0 0 0 0 0 0 0
0 0 0 0 0 0 0 0 0 0 0 0 0 0 0 0 0 0 0 0 0 0 0 0 0 0 0 0 0 0 0 0 0 0 0 0 0 0 0 0 0 0 0 0 0 0 0 0 0
0 0 0 0 0 0 0 0 0 0 0 0 0 0 0 0 0 0 0 0 0 0 0 0 0 0 0 0 0 0 0 0 0 0 0 0 0 0 0 0 0 0 0 0 0 0 0 0 0
Height
5818 5821 5825 5828 5831 5833 5837 5843 5846 5848 5850 5852 5855 5857 5859 5862 5864 5867 5867 5867 5867 5868 5869 5870 5871 5872 5873 5873 5874 5874 5875 5875 5875 5875 5875 5875 5875 5875 5875 5874 5874 5874 5873 5872 5872 5871 5870 5870 5869
5812 5815 5819 5821 5824 5828 5834 5838 5841 5843 5846 5848 5850 5853 5855 5857 5859 5861 5862 5863 5864 5866 5867 5868 5869 5870 5870 5871 5872 5872 5873 5873 5873 5873 5873 5873 5873 5873 5873 5872 5872 5871 5871 5870 5870 5869 5868 5868 5867
5805 5808 5812 5815 5818 5824 5830 5833 5836 5838 5841 5844 5846 5848 5851 5853 5855 5857 5858 5860 5861 5862 5864 5865 5866 5867 5868 5869 5869 5870 5870 5870 5871 5871 5871 5871 5871 5871 5871 5870 5870 5869 5869 5868 5867 5867 5866 5865 5864
5798 5801 5805 5809 5814 5819 5824 5828 5830 5833 5836 5839 5841 5844 5847 5850 5852 5853 5855 5856 5858 5859 5860 5861 5863 5864 5865 5866 5866 5867 5867 5868 5868 5868 5868 5868 5868 5868 5868 5868 5867 5867 5866 5866 5865 5864 5863 5862 5861
5790 5794 5798 5802 5808 5814 5818 5821 5824 5828 5831 5834 5837 5840 5842 5845 5847 5849 5851 5853 5854 5855 5857 5858 5859 5860 5862 5862 5863 5864 5864 5865 5865 5865 5865 5866 5866 5866 5865 5865 5865 5864 5863 5863 5862 5861 5860 5859 5858
5782 5787 5792 5797 5803 5808 5812 5815 5819 5822 5825 5828 5831 5834 5837 5840 5842 5845 5847 5849 5850 5852 5853 5854 5855 5857 5858 5859 5860 5861 5861 5862 5862 5862 5862 5863 5863 5863 5862 5862 5862 5861 5860 5860 5859 5858 5857 5856 5855
5775 5780 5784 5791 5797 5801 5805 5808 5812 5816 5819 5823 5826 5829 5832 5835 5838 5840 5842 5844 5846 5847 5849 5850 5851 5853 5854 5855 5856 5857 5858 5858 5859 5859 5859 5859 5859 5859 5859 5859 5858 5858 5857 5856 5856 5855 5854 5853 5851
5767 5773 5777 5783 5789 5795 5799 5802 5806 5810 5813 5817 5820 5824 5827 5830 5832 5835 5837 5839 5841 5843 5845 5846 5848 5849 5850 5851 5852 5853 5854 5855 5855 5855 5856 5856 5856 5856 5855 5855 5855 5854 5854 5853 5852 5851 5850 5849 5847
5759 5765 5770 5777 5782 5788 5791 5795 5799 5803 5807 5810 5814 5818 5822 5824 5827 5830 5832 5835 5837 5839 5840 5842 5843 5845 5846 5847 5848 5849 5850 5850 5851 5851 5852 5852 5852 5852 5852 5851 5851 5850 5849 5849 5848 5847 5846 5845 5843
5750 5756 5764 5770 5775 5780 5784 5787 5792 5796 5800 5804 5808 5811 5815 5819 5822 5825 5827 5830 5832 5834 5836 5837 5839 5840 5842 5843 5844 5845 5846 5846 5847 5847 5848 5848 5848 5848 5848 5847 5847 5846 5845 5844 5843 5842 5841 5840 5839
5743 5750 5756 5762 5767 5771 5776 5780 5784 5788 5793 5797 5802 5805 5809 5813 5816 5819 5821 5824 5826 5828 5831 5832 5834 5836 5837 5838 5839 5840 5841 5842 5842 5843 5843 5843 5843 5843 5843 5843 5842 5842 5841 5840 5839 5838 5837 5836 5834
5736 5742 5748 5753 5758 5763 5768 5772 5777 5781 5786 5790 5794 5798 5802 5806 5810 5812 5815 5818 5821 5823 5825 5827 5829 5831 5832 5833 5835 5836 5837 5837 5838 5838 5839 5839 5839 5839 5839 5838 5838 5837 5836 5836 5835 5833 5832 5831 5829
5727 5733 5739 5745 5750 5755 5760 5764 5769 5774 5778 5782 5787 5791 5795 5799 5802 5805 5809 5812 5815 5817 5820 5822 5824 5825 5827 5828 5830 5831 5832 5833 5833 5833 5834 5834 5834 5834 5834 5834 5833 5832 5832 5831 5830 5828 5827 5826 5824
5719 5724 5730 5736 5741 5746 5752 5756 5761 5767 5771 5775 5779 5784 5788 5792 5796 5799 5803 5806 5809 5811 5814 5816 5818 5820 5821 5823 5824 5826 5827 5827 5828 5828 5829 5829 5829 5829 5829 5829 5828 5828 5827 5826 5824 5823 5822 5820 5818
5709 5715 5720 5726 5732 5738 5744 5749 5754 5759 5763 5767 5772 5776 5781 5785 5789 5792 5796 5799 5802 5805 5808 5810 5812 5814 5816 5817 5819 5820 5821 5822 5823 5823 5824 5824 5824 5824 5824 5824 5823 5822 5821 5820 5819 5818 5816 5815 5813
5699 5705 5711 5719 5724 5730 5736 5742 5746 5751 5755 5760 5764 5769 5773 5778 5782 5785 5789 5792 5795 5798 5801 5803 5806 5808 5810 5811 5813 5814 5815 5816 5817 5818 5818 5819 5819 5819 5819 5818 5818 5817 5816 5815 5813 5812 5810 5809 5807
5689 5696 5704 5711 5716 5721 5727 5734 5738 5742 5747 5752 5756 5761 5766 5770 5774 5778 5782 5785 5788 5791 5794 5797 5799 5801 5803 5805 5807 5808 5809 5811 5812 5812 5813 5813 5813 5813 5813 5812 5812 5811 5810 5808 5807 5806 5804 5802 5800
5683 5690 5696 5702 5708 5713 5718 5725 5730 5734 5739 5744 5749 5753 5758 5763 5767 5770 5774 5777 5781 5784 5787 5790 5793 5795 5797 5799 5800 5802 5803 5805 5806 5806 5807 5807 5807 5807 5807 5806 5805 5805 5803 5802 5801 5799 5797 5795 5793
5676 5682 5688 5694 5699 5705 5710 5716 5721 5725 5731 5736 5741 5746 5751 5755 5759 5762 5766 5770 5773 5777 5780 5783 5786 5788 5791 5793 5794 5796 5797 5798 5799 5800 5800 5801 5801 5801 5800 5800 5799 5798 5797 5796 5794 5792 5790 5788 5786
5666 5672 5679 5685 5690 5696 5701 5707 5712 5717 5723 5728 5733 5738 5742 5747 5751 5755 5758 5762 5766 5770 5773 5776 5779 5782 5784 5786 5788 5789 5790 5792 5793 5793 5794 5794 5794 5794 5793 5793 5792 5791 5790 5788 5787 5785 5783 5780 5777
5657 5664 5671 5676 5681 5686 5691 5697 5703 5709 5714 5719 5724 5729 5734 5739 5743 5747 5751 5754 5758 5762 5766 5769 5772 5774 5777 5779 5781 5782 5784 5785 5786 5787 5787 5787 5787 5787 5786 5786 5785 5784 5783 5781 5779 5777 5774 5772 5769
5649 5656 5662 5667 5672 5676 5682 5687 5695 5700 5705 5711 5716 5721 5726 5730 5734 5738 5743 5747 5751 5755 5758 5761 5764 5767 5769 5772 5773 5775 5777 5778 5779 5779 5780 5780 5780 5780 5779 5779 5778 5776 5775 5773 5771 5769 5766 5763 5761
5642 5648 5653 5658 5663 5667 5673 5678 5686 5691 5697 5703 5708 5713 5717 5722 5726 5730 5735 5739 5743 5747 5750 5753 5756 5759 5762 5764 5766 5768 5769 5770 5771 5772 5772 5772 5772 5772 5771 5771 5770 5768 5767 5765 5762 5760 5757 5754 5751
5633 5639 5644 5648 5652 5657 5665 5669 5676 5684 5690 5696 5701 5705 5709 5714 5718 5722 5726 5730 5735 5738 5742 5745 5748 5751 5754 5756 5758 5760 5761 5762 5763 5764 5764 5764 5764 5764 5763 5762 5761 5760 5758 5756 5754 5751 5748 5745 5741
5623 5629 5634 5638 5641 5648 5656 5660 5668 5676 5682 5687 5692 5697 5701 5705 5709 5714 5718 5722 5726 5730 5734 5737 5740 5743 5746 5748 5750 5752 5753 5754 5755 5755 5756 5756 5756 5756 5755 5754 5752 5751 5749 5747 5744 5742 5738 5735 5731
5615 5621 5627 5631 5636 5642 5647 5651 5661 5667 5673 5678 5683 5688 5692 5696 5701 5705 5709 5714 5718 5721 5725 5729 5732 5735 5737 5739 5741 5743 5744 5745 5746 5747 5747 5747 5747 5747 5746 5745 5743 5742 5740 5737 5734 5732 5728 5724 5720
5606 5612 5619 5625 5629 5634 5638 5645 5653 5658 5664 5670 5674 5679 5683 5687 5692 5696 5701 5705 5709 5713 5717 5720 5723 5726 5728 5730 5732 5734 5735 5737 5737 5738 5738 5738 5738 5738 5737 5735 5734 5732 5730 5727 5724 5721 5718 5714 5709
5600 5605 5610 5615 5620 5625 5631 5637 5645 5650 5656 5661 5666 5670 5674 5678 5683 5687 5691 5696 5700 5704 5707 5711 5714 5717 5719 5721 5723 5725 5726 5727 5728 5729 5729 5729 5729 5728 5727 5726 5724 5722 5720 5717 5714 5710 5707 5703 5699
5592 5597 5602 5607 5613 5618 5624 5632 5637 5643 5648 5653 5657 5661 5665 5669 5674 5678 5682 5686 5690 5694 5698 5701 5705 5707 5710 5712 5714 5716 5717 5718 5719 5719 5720 5720 5719 5718 5717 5716 5714 5712 5709 5706 5703 5700 5696 5692 5689
5584 5590 5596 5601 5606 5611 5617 5626 5629 5634 5639 5643 5648 5652 5656 5660 5664 5669 5673 5677 5680 5684 5688 5691 5695 5698 5700 5702 5704 5706 5707 5708 5709 5710 5710 5710 5709 5708 5707 5705 5703 5701 5698 5695 5692 5689 5686 5682 5678
Wind_Speed
37 37 36 36 36 35 32 28 26 26 25 24 23 22 21 20 19 19 18 17 16 16 15 14 14 13 13 13 12 12 12 12 12 12 11 11 11 11 11 11 11 11 12 12 12 12 13 13 13
39 38 38 38 38 36 32 29 28 27 26 25 24 23 22 21 20 20 19 18 18 17 16 16 15 15 14 14 14 14 13 13 13 13 13 13 12 12 13 12 13 13 13 13 13 14 14 14 15
41 40 40 40 39 35 32 30 30 29 28 27 25 25 24 22 22 21 20 20 19 18 18 17 17 16 16 15 15 15 15 15 14 14 14 14 14 14 14 14 14 14 14 14 14 15 15 16 16
43 43 43 42 39 35 33 31 31 30 29 28 27 26 25 24 23 23 22 21 20 19 19 18 18 18 17 17 17 16 16 16 16 15 15 15 15 15 15 15 15 15 15 15 16 16 16 17 17
44 44 45 43 39 36 34 33 32 31 31 30 29 28 26 25 24 24 23 22 21 21 20 20 19 19 19 18 18 17 17 17 17 17 17 17 16 17 16 16 16 16 16 16 16 17 17 17 17
45 46 45 43 39 37 35 35 34 33 32 31 30 29 28 27 26 25 24 24 23 22 22 21 20 20 20 19 19 18 18 18 18 18 17 17 17 17 17 17 17 17 17 17 17 17 18 18 18
45 45 45 43 40 38 37 36 35 34 34 33 32 31 30 28 27 26 25 25 24 24 23 22 22 21 21 21 20 19 19 19 19 19 18 18 18 18 18 18 18 18 18 18 18 18 19 19 20
45 45 45 43 40 39 38 38 37 36 35 34 34 32 31 30 29 28 27 26 25 25 24 23 23 22 22 22 21 21 21 20 20 19 20 20 19 19 19 19 19 19 20 20 20 20 20 20 20
46 46 45 42 40 39 39 39 38 38 37 36 35 34 32 31 30 29 28 27 27 26 25 24 24 23 23 23 22 22 22 22 21 21 21 21 20 20 20 20 20 21 21 21 21 21 21 21 21
48 47 44 42 41 40 40 40 40 39 38 38 37 36 34 33 31 30 29 29 28 27 26 26 25 25 24 24 23 23 23 23 22 22 22 22 22 22 22 22 22 22 22 22 22 22 22 23 23
48 47 44 43 42 41 41 41 41 41 40 39 38 36 35 34 33 32 31 30 29 28 28 27 27 26 25 25 24 24 24 23 24 23 23 23 23 23 23 23 23 23 23 23 23 23 24 24 24
47 46 45 44 43 42 42 43 42 42 41 40 39 37 37 35 34 34 33 32 30 29 29 28 27 27 26 26 25 25 25 24 25 25 24 23 23 23 23 23 23 23 24 24 24 24 25 25 25
47 46 45 45 44 44 44 44 43 42 41 41 40 39 38 37 36 36 34 33 32 31 30 29 29 28 28 27 27 26 26 26 25 25 24 24 24 24 24 24 24 24 24 24 25 25 26 26 27
47 46 46 45 45 45 45 45 44 42 42 42 41 40 39 38 37 36 35 34 33 33 32 31 31 30 30 29 28 27 27 27 26 26 25 25 25 25 25 25 25 25 25 25 26 26 27 28 29
48 47 47 46 46 45 46 45 44 43 42 42 41 41 40 39 38 37 36 36 35 34 33 33 32 32 31 31 30 29 28 28 27 27 26 25 25 25 26 26 26 26 26 27 27 28 29 29 30
48 48 48 47 46 45 46 45 44 44 43 42 42 41 40 39 38 37 37 37 36 35 34 34 33 33 32 31 31 30 30 29 28 27 27 27 27 27 27 27 27 28 28 28 29 29 30 30 31
50 49 48 47 47 46 46 45 44 44 44 43 42 41 40 40 39 38 38 37 37 36 36 35 34 33 33 32 31 30 30 29 29 28 28 28 28 28 28 29 29 29 30 30 30 31 31 32 32
49 49 48 46 47 46 46 45 44 44 44 43 43 42 41 40 40 39 39 38 38 37 36 35 34 34 33 32 31 30 30 30 29 29 29 29 29 30 30 30 30 30 30 31 31 32 33 34 34
47 47 46 45 46 46 46 45 45 45 44 44 43 42 42 41 41 40 40 39 38 38 36 35 34 34 33 32 31 31 31 30 30 30 30 30 30 30 31 31 31 31 31 32 33 33 34 35 36
47 47 47 46 45 46 47 46 45 45 44 44 43 43 42 42 41 41 40 40 39 38 37 36 36 35 34 33 32 32 32 31 31 31 31 31 31 31 32 32 32 32 33 33 34 35 36 37 38
48 46 45 46 45 46 47 47 46 45 45 44 43 43 42 41 41 41 41 40 39 38 38 37 37 36 35 34 34 33 33 32 32 32 32 32 32 33 33 33 34 34 34 35 36 37 38 38 39
47 45 45 45 45 46 47 48 47 46 45 44 43 43 42 42 41 41 41 40 39 39 38 38 37 37 36 35 35 34 34 34 34 34 34 34 34 34 34 35 35 35 36 37 38 39 39 40 40
45 44 44 45 45 46 47 48 47 46 45 44 43 42 42 42 41 41 41 40 40 39 39 39 38 37 37 36 36 35 35 35 35 36 36 35 36 36 36 36 36 37 38 39 40 40 40 41 42
44 44 43 44 46 48 47 47 47 45 44 43 43 42 42 42 42 41 41 41 40 40 40 39 39 38 37 37 37 37 36 36 36 37 37 37 37 37 37 37 38 39 40 40 41 41 42 43 44
44 45 45 45 47 49 47 47 46 44 43 42 42 42 42 42 42 42 41 41 41 41 40 40 40 39 39 38 38 38 37 37 37 37 38 38 38 38 38 39 40 40 41 41 42 43 44 45 46
43 45 45 46 47 47 47 47 45 43 42 42 42 42 42 42 42 42 42 42 42 42 41 41 40 40 39 39 39 39 39 39 38 38 38 38 38 39 39 40 41 41 42 42 43 44 45 47 47
42 43 43 44 45 46 46 45 44 43 42 42 42 42 42 42 43 42 42 42 42 42 42 41 41 41 40 40 40 40 39 39 39 39 39 39 40 40 40 41 42 42 43 44 45 46 47 47 47
43 42 42 43 44 44 45 44 42 41 40 40 41 41 41 41 42 42 42 43 43 43 43 43 42 42 41 41 41 41 40 41 41 40 40 41 41 41 42 42 43 44 45 46 46 46 46 46 46
42 42 43 43 43 43 44 44 42 40 40 39 39 40 41 41 42 42 42 43 43 44 44 44 43 43 43 42 42 42 41 41 41 41 41 41 42 42 43 44 44 45 46 46 47 46 46 46 46
40 41 41 42 42 43 43 42 40 39 39 38 38 39 40 41 42 42 42 42 43 44 44 45 44 44 43 43 43 42 42 42 42 41 42 42 43 44 44 45 46 46 46 47 47 46 46 46 47
Wind_Direction
229 228 229 229 230 231 230 227 227 228 228 229 230 230 229 231 232 235 235 237 239 240 241 241 242 243 245 248 250 252 254 255 256 258 260 262 263 265 268 274 277 279 282 286 288 289 291 292 291
229 228 228 229 230 230 229 226 227 228 228 229 229 229 229 230 231 234 236 237 240 242 242 244 244 246 247 249 250 253 255 256 257 259 260 262 264 266 270 273 276 278 281 285 286 288 289 291 291
229 228 228 229 230 229 228 227 227 228 228 229 229 230 230 230 231 233 236 238 240 243 244 245 246 248 249 250 250 252 254 257 258 259 261 264 265 267 270 273 275 277 280 283 283 285 288 289 290
228 229 229 229 229 228 228 228 228 228 229 229 230 230 230 230 232 234 236 238 240 243 244 246 247 248 249 250 251 253 255 257 258 259 262 264 266 268 270 274 275 276 279 281 282 283 285 288 289
228 228 229 229 229 228 228 228 228 229 229 229 230 230 230 230 232 234 236 238 240 242 244 246 246 248 249 250 252 254 255 257 259 261 262 264 266 269 271 274 275 276 278 279 280 283 285 286 287
228 228 229 229 229 228 228 228 228 229 229 229 229 229 230 231 232 233 235 238 240 242 244 246 246 247 249 250 252 254 255 256 258 261 262 263 266 268 271 273 275 276 278 278 280 282 283 284 286
228 228 229 229 228 227 227 228 228 229 229 229 229 230 230 231 232 234 236 238 240 242 244 246 246 247 248 250 252 254 255 257 258 260 261 263 265 268 270 273 275 276 277 278 280 282 283 284 286
227 228 229 228 227 227 227 228 228 229 229 229 230 231 230 231 232 234 237 238 240 242 244 245 246 247 248 250 253 254 255 257 258 260 262 264 266 267 270 273 274 275 276 278 280 281 283 285 286
227 228 228 227 227 226 227 228 228 229 230 230 230 232 232 232 233 235 237 239 240 241 243 245 246 247 248 250 252 253 255 256 257 259 262 265 266 269 271 274 274 276 277 279 280 282 282 283 285
227 228 227 227 227 226 226 227 228 229 230 230 230 231 232 233 233 234 236 238 239 240 241 243 245 247 248 249 251 252 254 255 257 259 261 264 267 270 271 273 274 276 278 280 281 283 283 283 284
227 227 227 227 226 226 226 226 227 228 229 229 230 231 232 233 233 235 236 237 238 239 240 242 244 246 247 249 250 252 253 255 258 259 262 264 267 270 271 272 274 276 277 279 280 282 284 284 285
227 227 227 226 226 226 226 227 227 228 229 229 230 230 231 232 233 235 236 237 238 239 240 241 243 245 247 248 250 252 253 255 258 261 262 264 267 270 271 273 274 276 278 279 280 282 283 284 284
227 226 226 226 226 226 226 227 227 228 229 229 230 230 231 232 233 235 236 237 237 239 240 241 242 244 247 249 250 252 254 256 258 261 261 263 266 268 270 273 276 277 278 279 281 281 282 284 285
226 226 226 225 226 226 226 227 227 227 228 229 230 231 232 232 233 234 235 237 238 238 240 241 242 244 246 248 250 251 254 256 257 260 262 264 266 268 270 273 275 277 278 279 280 281 283 285 286
225 226 225 225 225 225 226 226 227 227 228 229 230 231 232 232 232 233 235 236 237 238 240 242 243 245 247 249 251 252 253 255 257 259 261 263 266 269 271 274 276 277 278 280 281 282 283 285 286
225 226 225 224 225 225 226 226 227 227 228 229 230 230 231 231 232 233 234 236 237 238 240 242 243 245 247 249 251 252 253 254 256 258 261 263 266 269 272 274 276 276 278 279 281 282 284 286 287
224 225 225 224 225 225 226 226 226 227 228 229 229 230 231 231 232 233 234 235 236 238 239 241 243 244 246 248 250 251 252 254 256 258 261 264 267 269 272 274 275 276 278 279 281 283 284 286 287
225 225 225 225 225 226 227 226 226 227 227 228 229 230 230 231 232 233 233 234 236 237 239 240 242 244 246 247 249 250 252 254 257 259 261 264 267 270 272 273 275 276 278 280 282 284 286 287 288
225 226 225 225 225 227 227 226 226 226 227 228 229 230 230 231 232 232 233 234 235 237 238 240 241 243 245 246 248 250 252 254 257 260 262 265 267 269 271 273 275 276 279 281 283 285 286 288 289
223 224 224 224 225 227 227 226 226 226 227 228 229 230 230 231 232 232 233 234 234 236 237 239 240 243 245 246 248 250 253 255 258 261 263 266 267 269 271 272 275 277 279 282 284 285 287 288 289
222 223 225 225 226 227 227 226 225 226 227 228 229 230 230 231 231 232 233 233 234 235 236 238 241 243 245 247 249 251 254 257 259 262 264 266 267 269 271 273 275 278 280 282 285 286 288 289 290
223 223 225 226 226 227 227 227 225 226 227 228 228 229 230 230 231 231 232 232 233 234 236 238 241 243 245 247 250 252 255 257 260 262 264 266 268 270 272 274 276 278 281 283 286 288 289 290 290
223 224 226 227 227 228 227 229 226 226 227 228 229 229 230 230 230 231 232 232 233 234 236 238 241 243 245 248 250 253 255 258 260 262 264 267 269 271 272 275 277 279 281 284 286 288 289 290 291
222 223 225 227 228 229 227 230 229 227 228 228 228 229 230 230 230 231 232 233 234 235 236 239 241 243 246 248 251 253 256 258 261 263 265 267 269 271 273 276 278 280 282 284 286 288 290 290 291
222 223 224 226 227 229 228 231 230 227 226 227 228 229 230 230 231 231 232 234 235 235 237 239 242 244 246 249 251 254 256 259 261 263 265 267 269 271 273 276 278 281 283 285 287 288 290 291 292
223 224 225 227 229 230 230 231 230 229 227 227 228 230 230 231 231 232 233 234 235 236 237 239 242 245 247 249 251 254 257 259 261 263 265 267 269 272 274 277 279 281 283 285 287 288 290 292 293
222 223 224 228 231 233 232 232 231 230 229 229 229 230 231 231 231 232 232 234 235 237 239 240 242 244 247 249 251 254 257 259 261 262 265 267 270 272 275 277 279 281 283 285 287 289 291 292 293
221 223 224 227 230 233 234 233 233 231 231 231 232 232 232 233 233 233 234 234 236 237 239 240 242 244 247 250 252 254 257 259 261 263 265 267 270 273 275 278 280 282 283 285 287 289 291 292 293
219 222 224 227 229 232 234 235 234 234 233 233 233 234 235 235 234 234 235 236 237 238 239 240 242 244 247 249 252 255 258 260 261 263 266 268 271 273 276 278 280 282 284 286 287 289 290 291 293
221 222 224 226 228 231 234 236 235 235 235 235 235 235 236 236 235 235 235 235 237 238 240 241 243 245 247 250 252 255 257 259 261 263 266 269 271 273 276 278 280 282 284 286 287 288 289 291 293